Back to catalog

STARLINK-32895

AliveCommunicationsVLEO
NORAD 63081·PAYLOAD·🇺🇸 United States

Launched Feb 23, 2025 from Vandenberg Space Force Base

Loading…

Next Passes (next 24 hours)

TLE

FreshSource: CelesTrak SupGP

Epoch: Sep 14, 2026, 20:52 UTC

1 63081C 25037E   26257.86993056  .00054178  00000+0  18850-2 0  2578
2 63081  70.0004 235.9270 0003101 266.1374 252.7305 15.29547165    13

Track STARLINK-32895 in real time with AllMySat

Download on the App Store